Terminal Aerodrome Forecast
Issued by NWS Hastings, NE

Home | Current Version | Previous Version | Text Only | Print | Product List | Glossary On
Versions: 1 2 3 4 5 6 7 8 9 10 11 12 13 14 15 16 17 18 19 20 21 22 23 24 25 26 27 28 29 30 31
000
FTUS43 KGID 271722
TAFGRI
TAF
KGRI 271722Z 2718/2818 16014G21KT P6SM SCT150
     FM272300 16010KT P6SM SCT150
     FM280600 19007KT P6SM SKC
     FM281000 23008KT P6SM SKC=

USA.gov is the U.S. government's official web portal to all federal, state and local government web resources and services.